Regional Weather Roundup
Issued by NWS

Home | Current Version | Previous Version | Graphics & Text | Print | Product List | Glossary On
Versions: 1 2 3 4 5 6 7 8 9 10 11 12 13 14 15 16 17 18 19 20 21 22 23 24 25 26 27 28 29 30 31 32 33 34 35 36 37 38 39 40 41 42 43 44 45 46 47 48 49 50
731
ASUS43 KLMK 231310
RWRKY
KENTUCKY REGIONAL WEATHER ROUNDUP
NATIONAL WEATHER SERVICE LOUISVILLE KY
900 AM EDT THU MAR 23 2017

NOTE "FAIR" INDICATES FEW OR NO CLOUDS BELOW 12,000 FEET
WITH NO SIGNIFICANT WEATHER AND/OR OBSTRUCTIONS TO VISIBILITY.

KYZ001>023-026-027-061>063-070>075-231400-
WESTERN AND SOUTH CENTRAL KENTUCKY

CITY           SKY/WX    TMP DP  RH WIND       PRES   REMARKS
PADUCAH        LGT RAIN  38  30  73 NE7       30.34R WCI  33
HENDERSON      CLOUDY    37  21  52 E12       30.34F WCI  30
OWENSBORO      PTSUNNY   37  21  52 E10       30.37R WCI  30
HOPKINSVILLE   PTSUNNY   38  25  59 E9        30.33R WCI  31
BOWLING GREEN  MOSUNNY   38  23  55 E8        30.36R WCI  32
GLASGOW        SUNNY     35  24  62 NE5       30.37R WCI  31
$$

KYZ024-025-028>034-038-045-046-053-231400-
NORTH CENTRAL KENTUCKY

CITY           SKY/WX    TMP DP  RH WIND       PRES   REMARKS
LOUISVILLE/SDF MOSUNNY   36  16  44 CALM      30.43R
LOUISVILLE/LOU MOSUNNY   34  16  47 E6        30.43R WCI  29
FORT KNOX      MOSUNNY   33  17  53 NE8       30.38R WCI  25
$$

KYZ035>037-039>044-047>052-055>060-089>105-231400-
NORTHEAST KENTUCKY

CITY           SKY/WX    TMP DP  RH WIND       PRES   REMARKS
LEXINGTON      SUNNY     34  15  46 E13       30.40S WCI  25
COVINGTON      CLOUDY    31  16  54 E14       30.44S WCI  21
FRANKFORT      CLOUDY    34  15  46 E10       30.40S WCI  26
$$

KYZ054-064>069-076>088-106>120-231400-
SOUTHEAST KENTUCKY

CITY           SKY/WX    TMP DP  RH WIND       PRES   REMARKS
JACKSON        CLOUDY    32  15  49 VRB5      30.40R WCI  27
LONDON         SUNNY     37  16  42 E3        30.39R
SOMERSET       SUNNY     36  18  48 E3        30.40S
MIDDLESBORO    SUNNY     33  28  81 CALM      30.41S
MONTICELLO     SUNNY     37  21  52 VRB6      30.39S WCI  32
$$





USA.gov is the U.S. government's official web portal to all federal, state and local government web resources and services.